Regional Weather Roundup
Issued by NWS

Home | Current Version | Previous Version | Graphics & Text | Print | Product List | Glossary On
Versions: 1 2 3 4 5 6 7 8 9 10 11 12 13 14 15 16 17 18 19 20 21 22 23 24 25 26 27 28 29 30 31 32 33 34 35 36 37 38 39 40 41 42 43 44 45 46 47 48 49 50
000
ASUS43 KTOP 221059
RWRKS

WEATHER ROUNDUP FOR KANSAS
NATIONAL WEATHER SERVICE GOODLAND KS
600 AM CDT WED OCT 22 2014

NOTE:  "FAIR" INDICATES FEW OR NO CLOUDS BELOW 12,000 FEET WITH NO
SIGNIFICANT WEATHER AND/OR OBSTRUCTIONS TO VISIBILITY.

KSZ001>006-013>018-027>032-041>047-221200-
NORTHWEST KANSAS

CITY           SKY/WX    TMP DP  RH WIND       PRES   REMARKS
GOODLAND       CLOUDY    51  47  86 S9        29.97R
HAYS           CLEAR     54  46  76 SE7       30.02S
HILL CITY      CLEAR     58  50  75 SW6       29.99R
RUSSELL        CLEAR     57  53  86 S10       30.01R
$$

KSZ061>065-074>080-084>089-221200-
SOUTHWEST KANSAS

CITY           SKY/WX    TMP DP  RH WIND       PRES   REMARKS
DODGE CITY     PTCLDY    55  49  80 S10       30.04S
ELKHART          N/A     56  50  81 S8          N/A
GARDEN CITY    MOCLDY    57  50  77 S13       30.00S
GREAT BEND     CLEAR     55  50  82 S7        30.04S
LIBERAL        PTCLDY    57  46  67 S9        30.04S
$$

KSZ066>073-081>083-090>101-221200-
SOUTHEAST KANSAS

CITY           SKY/WX    TMP DP  RH WIND       PRES   REMARKS
CHANUTE        MOCLDY    56  50  80 SE6       30.13R
COFFEYVILLE    CLOUDY    56  53  90 CALM      30.12R
HUTCHINSON     CLEAR     56  53  90 SE6       30.08R FOG
NEWTON         CLEAR     55  52  88 SE7       30.11R
PARSONS        MOCLDY    60  54  80 CALM      30.14R
WICHITA INTL   CLEAR     59  56  89 S7        30.08R
WICHITA JABRA  CLEAR     56  56 100 S5        30.09R FOG
WINFIELD       CLEAR     61  58  90 SE6       30.10R
$$

KSZ007>012-019>026-033>040-048>060-102>105-221200-
NORTHEAST KANSAS

CITY           SKY/WX    TMP DP  RH WIND       PRES   REMARKS
CONCORDIA      CLEAR     57  55  93 SE12      30.05R
EMPORIA        PTCLDY    53  49  86 SE8       30.11R
LAWRENCE       MOCLDY    56  47  71 E8        30.15R
MANHATTAN      CLEAR     58  48  69 CALM      30.09R
OLATHE IND     CLOUDY    55  47  74 SE7       30.16R
OLATHE EXE     CLOUDY    54  47  77 SE9       30.16R
SALINA         CLEAR     59  56  89 SE9       30.06R
TOPEKA BILLARD PTCLDY    53  47  79 E7        30.14R
TOPEKA FORBES  CLEAR     54  45  71 SE7       30.12S
$$



USA.gov is the U.S. government's official web portal to all federal, state and local government web resources and services.